{"data":{"norad_id":65990,"epoch":"2026-09-20T08:14:54.009888Z","epoch_age_seconds":153928,"freshness":"FRESH","line1":"1 65990U 25230S   26263.34368067  .00000097  00000+0  74628-4 0  9993","line2":"2 65990  81.2990 123.3058 0003362 310.5135  49.5728 13.85242343 46992","mean_motion":13.85242343,"eccentricity":0.0003362,"inclination_deg":81.299,"raan_deg":123.3058,"arg_perigee_deg":310.5135,"mean_anomaly_deg":49.5728,"bstar":7.4628e-5,"rev_number":4699,"period_min":103.95292977266,"perigee_km":942.88931888999,"apogee_km":947.81363254106,"semimajor_km":7323.4884757155,"source":"CELESTRAK","updated_at":"2026-09-21T09:00:15.690401Z"}}